Location: Hermaringen
(48.5952°N, 10.2585°E)
Time: 07:17:08
(UTC+00:00)

Altair - Pass Details

Date: 19 February 2026
Orbit: 1502 x 1682 km, 47.2° (Epoch: 9 March)

Event Time Altitude Azimuth Distance (km) Brightness Sun altitude
Rises 06:40:25 0° 270° (W) 4,657 9.4 2.4°
Reaches altitude 10° 06:43:24 10° 270° (W) 3,689 8.9 2.9°
Maximum altitude 06:52:45 83° 184° (S) 1,573 7.8 4.3°
Drops below altitude 10° 07:02:27 10° 98° (E) 3,822 11.5 5.8°
Sets 07:05:37 0° 98° (E) 4,831 11.9 6.3°
